This is the latest recevied weather packets stored in our database for station/object WE0DX-1. If no packets are shown the sender has not sent any weather packets the latest 1 day(s).
| Time | Temp. | Humidity | Pressure | Rain* | Wind** | Luminosity | Snow |
|---|---|---|---|---|---|---|---|
| 1778007338 | 9.44° C | 83% | 1011.6 hPa | 0 mm | 0 m/s | 127 W/m² | - |
| 1778007034 | 9.44° C | 87% | 1011.5 hPa | 0 mm | 0 m/s | 182 W/m² | - |
| 1778006731 | 9.44° C | 88% | 1011.7 hPa | 0 mm | 0 m/s | 193 W/m² | - |
| 1778006428 | 9.44° C | 88% | 1011.7 hPa | 0 mm | 0 m/s | 202 W/m² | - |
| 1778006124 | 9.44° C | 90% | 1011.8 hPa | 0 mm | 0 m/s | 197 W/m² | - |
| 1778005822 | 8.89° C | 90% | 1011.7 hPa | 0 mm | 0 m/s | 142 W/m² | - |
| 1778005518 | 9.44° C | 92% | 1011.8 hPa | 0 mm | 0 m/s | 143 W/m² | - |
| 1778005214 | 9.44° C | 91% | 1011.7 hPa | 0 mm | 0 m/s | 126 W/m² | - |
| 1778004911 | 9.44° C | 92% | 1011.9 hPa | 0 mm | 0 m/s | 153 W/m² | - |
| 1778004608 | 8.89° C | 91% | 1011.9 hPa | 0 mm | 0 m/s | 117 W/m² | - |
| 1778004303 | 8.89° C | 92% | 1012.2 hPa | 0 mm | 0 m/s | 92 W/m² | - |
| 1778004001 | 8.89° C | 91% | 1012.2 hPa | 0 mm | 0 m/s | 128 W/m² | - |
| 1778003696 | 8.89° C | 93% | 1012.2 hPa | 0 mm | 0 m/s | 112 W/m² | - |
| 1778003394 | 8.89° C | 93% | 1012.1 hPa | 0 mm | 0 m/s | 104 W/m² | - |
| 1778003091 | 8.89° C | 94% | 1012 hPa | 0 mm | 0 m/s | 70 W/m² | - |
| 1778002787 | 8.89° C | 94% | 1012.2 hPa | 0 mm | 0 m/s | 58 W/m² | - |
| 1778002483 | 8.89° C | 93% | 1012 hPa | 0 mm | 0 m/s | 69 W/m² | - |
| 1778002180 | 8.89° C | 94% | 1012.2 hPa | 0 mm | 0 m/s | 54 W/m² | - |
| 1778001879 | 8.89° C | 92% | 1012.2 hPa | 0 mm | 0 m/s | 71 W/m² | - |
| 1778001577 | 8.89° C | 92% | 1012.3 hPa | 0 mm | 0 m/s | 68 W/m² | - |
| 1778001275 | 8.89° C | 94% | 1012.7 hPa | 0 mm | 0 m/s | 74 W/m² | - |
| 1778000972 | 8.89° C | 94% | 1012.4 hPa | 0 mm | 0 m/s | 91 W/m² | - |
| 1778000668 | 8.89° C | 94% | 1012.7 hPa | 0 mm | 0 m/s | 71 W/m² | - |
| 1778000364 | 8.89° C | 94% | 1012.4 hPa | 1.78 mm | 0 m/s | 76 W/m² | - |
| 1778000060 | 8.89° C | 94% | 1012.1 hPa | 0 mm | 0 m/s | 79 W/m² | - |
* Rain latest hour (hover to see other rain measurements)
** Current wind speed in m/s (hover to see current wind gust speed)